SCP
0 0 0 1 2 2 1 1 1 1 2 2 2 2 1 0 0 0 0 0 0 0 0 0 0 0 0 0 -0 0 0 0
0 0 0 0 1 1 1 0 0 0 2 2 1 1 1 0 0 0 0 0 0 0 0 0 0 0 0 0 0 0 0 0
0 0 0 0 1 2 1 1 0 0 1 1 1 1 1 1 1 0 0 0 0 0 0 0 0 0 0 0 -0 0 0 0
0 0 0 0 0 1 2 1 1 1 1 0 0 0 1 0 0 0 0 0 0 0 0 0 0 0 0 0 0 0 0 0
0 0 0 0 0 0 2 2 2 2 1 0 0 0 0 0 0 0 0 0 0 0 0 0 0 0 0 0 0 0 0 0
0 0 0 0 0 0 0 3 2 2 2 1 1 1 0 0 0 0 0 0 0 0 0 0 0 0 0 0 0 0 0 0
0 0 0 0 0 0 0 2 3 2 2 2 2 2 2 0 0 0 0 0 0 0 0 0 0 0 0 0 0 0 0 0
0 0 0 0 0 0 0 0 2 2 3 2 1 1 1 1 1 1 0 0 0 0 0 0 0 0 0 0 0 0 0 0
0 0 0 0 0 0 0 0 0 2 2 4 2 1 1 1 1 0 0 1 0 0 0 0 0 0 0 0 0 0 0 0
0 0 0 0 0 0 0 0 0 0 0 2 2 1 0 0 0 0 0 0 0 1 0 0 0 0 0 0 0 0 0 0
0 0 0 0 0 0 0 0 0 0 1 2 2 1 0 0 0 0 0 0 0 0 0 0 1 0 0 1 0 0 0 0
0 -0 -0 0 0 0 0 0 0 0 0 0 1 0 0 0 1 0 0 1 0 0 0 0 1 1 1 1 0 0 0 0
-0 0 0 0 0 0 0 0 0 0 0 0 0 0 0 0 1 0 0 0 1 0 1 0 0 0 0 0 0 0 0 0
-0 0 -0 0 0 0 0 0 0 0 0 0 0 0 0 0 1 0 0 1 1 1 1 0 0 0 0 0 0 0 0 0
-0 0 0 0 0 0 0 0 0 0 0 0 0 0 0 0 0 0 0 0 0 0 0 0 0 0 0 0 0 0 0 0
0 0 0 0 0 0 0 0 0 0 0 0 0 0 0 0 0 0 0 1 1 0 0 0 0 0 0 0 0 0 0 0
0 0 0 0 0 0 0 0 0 0 0 0 0 0 0 0 0 0 0 0 1 0 0 0 0 0 0 0 0 0 0 0
0 0 0 0 0 0 0 0 0 0 0 0 0 0 0 0 0 0 -0 0 0 0 0 0 0 0 0 0 0 0 0 0
0 0 0 0 0 0 0 0 0 0 0 0 0 0 0 1 1 0 0 0 0 0 0 0 0 0 0 0 0 0 0 0
-0 0 0 0 0 0 0 0 0 0 0 0 0 0 0 1 0 0 0 0 0 0 0 0 0 0 0 0 0 0 0 0
Wind_Speed_500mb
24 20 9 4 17 25 19 22 27 31 34 54 53 49 45 43 41 40 38 38 38 38 38 37 36 33 28 24 19 18 22 21
36 28 30 26 6 22 24 25 28 32 36 47 52 51 50 47 45 44 43 44 43 43 43 39 37 35 29 27 24 22 20 13
46 41 33 39 17 25 31 25 18 31 33 37 47 46 52 50 49 48 47 48 47 43 39 36 32 32 30 28 27 23 21 9
58 47 47 42 48 30 34 33 27 26 36 42 42 47 46 46 52 52 51 51 50 49 38 36 27 19 30 26 22 21 19 11
58 49 44 56 48 31 35 42 37 35 32 39 59 50 55 56 50 50 56 54 55 53 44 38 34 25 27 28 29 27 26 20
50 45 45 49 44 41 30 34 41 42 37 40 50 62 59 59 53 44 45 54 57 56 51 45 39 32 35 29 31 29 26 27
53 50 47 49 56 49 44 44 48 49 49 43 44 59 61 55 58 62 51 51 48 59 55 50 45 44 41 40 36 35 36 33
66 66 59 55 53 53 56 42 39 46 49 51 41 46 57 71 63 61 73 63 56 53 58 55 52 54 54 47 48 48 40 30
62 69 68 65 66 62 62 56 52 43 51 55 52 50 51 59 81 77 63 80 74 70 59 61 57 61 55 54 44 43 46 45
74 64 64 71 68 69 67 57 51 46 52 57 50 48 56 56 62 69 93 89 73 74 78 66 64 64 61 55 53 51 53 46
66 66 64 52 70 64 61 57 55 46 54 58 46 44 53 58 60 60 57 77 84 67 84 80 71 69 64 63 60 56 60 50
37 51 52 59 66 62 59 57 52 40 49 48 39 42 51 46 49 54 45 52 63 87 74 93 64 71 61 62 60 54 61 56
32 28 6 14 35 55 54 53 43 40 46 42 41 41 35 28 33 38 41 53 51 57 93 77 49 59 56 57 61 64 57 49
65 23 16 8 19 46 45 45 43 40 42 41 43 44 36 29 32 35 36 38 41 52 64 62 69 54 58 60 67 64 51 45
39 38 46 32 10 24 20 29 43 49 45 46 48 44 28 30 32 35 33 34 41 37 74 81 69 74 66 63 64 55 45 42
53 47 48 47 43 37 25 19 14 22 41 52 47 30 31 35 31 38 33 33 40 45 59 71 67 81 68 63 60 48 41 41
58 48 40 40 38 32 28 26 22 21 17 9 20 31 40 35 32 36 36 28 31 37 47 93 60 73 78 71 61 42 40 37
48 51 43 35 27 21 24 28 27 24 17 20 17 20 17 23 26 37 37 30 27 32 47 73 81 93 75 55 55 43 40 33
47 43 44 36 26 24 19 22 22 21 24 24 22 19 14 12 23 31 35 34 30 36 45 74 92 83 44 53 33 36 38 31
45 41 42 45 39 38 31 27 25 26 28 20 24 28 32 8 20 23 28 25 23 29 69 74 59 52 63 53 39 38 32 35
Wind_Direction_500mb
330 299 335 141 248 232 238 260 250 237 250 230 222 223 224 225 224 223 221 219 214 214 215 215 215 213 214 216 209 193 182 188
303 306 290 295 278 227 240 253 256 251 241 232 228 229 231 231 232 229 224 223 220 218 218 220 222 220 216 211 193 183 185 205
290 287 283 287 258 239 247 230 242 244 241 228 231 235 238 239 238 236 230 229 225 222 219 219 220 224 218 213 196 197 202 194
282 279 277 274 277 241 244 248 248 238 248 246 243 244 244 244 242 244 240 235 230 228 220 216 206 207 196 189 197 206 210 222
262 264 279 263 273 251 239 243 247 233 253 262 244 247 247 246 248 245 244 240 234 231 227 225 215 205 202 219 221 217 218 229
251 248 253 265 264 261 242 247 250 257 265 267 262 245 247 243 242 243 245 241 237 233 232 233 228 222 229 229 228 221 224 240
240 243 251 252 257 258 263 250 247 254 256 265 264 252 244 243 245 245 242 237 240 235 236 241 245 237 234 223 221 225 221 230
266 251 248 247 250 253 252 254 243 246 251 248 254 250 250 241 242 245 243 234 236 236 241 234 238 231 234 233 239 246 233 232
272 258 254 249 242 241 242 247 250 246 247 243 253 263 264 256 247 242 240 241 232 231 242 236 234 234 235 234 232 216 230 226
276 256 254 255 244 244 240 240 245 248 249 243 250 269 279 270 265 260 252 236 242 232 233 237 231 233 230 230 223 231 226 226
269 258 242 243 240 234 230 232 232 240 238 239 250 274 285 283 270 271 265 249 245 237 234 243 232 231 230 233 228 232 234 227
291 253 248 246 256 233 226 223 228 238 232 236 254 279 287 284 279 274 285 276 266 245 245 249 231 228 229 228 234 233 231 233
351 50 259 232 243 225 219 220 229 239 228 248 261 267 292 297 294 286 277 280 281 257 226 215 222 234 233 234 233 237 240 240
322 34 44 101 209 208 216 225 228 235 242 255 258 265 282 304 315 302 291 279 271 248 215 223 213 223 240 236 237 239 236 231
1 72 74 77 108 211 225 236 231 231 235 244 251 256 286 306 318 317 306 284 273 261 224 219 206 219 232 228 234 235 228 225
15 42 64 74 75 73 64 53 26 270 258 250 258 263 282 290 302 315 319 297 276 261 231 218 235 219 221 217 233 221 211 218
11 33 41 49 68 65 59 57 46 35 36 260 275 281 268 277 297 307 321 300 279 261 247 224 218 225 221 215 203 191 205 207
341 3 11 26 33 45 56 55 57 46 23 0 0 348 304 283 292 304 318 303 271 252 235 202 199 213 205 191 180 174 198 199
308 327 344 348 355 352 355 11 24 34 25 11 351 349 335 278 290 307 318 302 260 248 224 205 202 191 196 182 174 190 209 200
288 294 291 308 324 326 326 322 335 357 5 352 339 309 336 302 291 312 308 301 258 240 201 193 191 191 160 164 189 194 189 182
Wind_Speed_850mb
24 20 9 4 17 25 19 22 27 31 34 54 53 49 45 43 41 40 38 38 38 38 38 37 36 33 28 24 19 18 22 21
36 28 30 26 6 22 24 25 28 32 36 47 52 51 50 47 45 44 43 44 43 43 43 39 37 35 29 27 24 22 20 13
46 41 33 39 17 25 31 25 18 31 33 37 47 46 52 50 49 48 47 48 47 43 39 36 32 32 30 28 27 23 21 9
58 47 47 42 48 30 34 33 27 26 36 42 42 47 46 46 52 52 51 51 50 49 38 36 27 19 30 26 22 21 19 11
58 49 44 56 48 31 35 42 37 35 32 39 59 50 55 56 50 50 56 54 55 53 44 38 34 25 27 28 29 27 26 20
50 45 45 49 44 41 30 34 41 42 37 40 50 62 59 59 53 44 45 54 57 56 51 45 39 32 35 29 31 29 26 27
53 50 47 49 56 49 44 44 48 49 49 43 44 59 61 55 58 62 51 51 48 59 55 50 45 44 41 40 36 35 36 33
66 66 59 55 53 53 56 42 39 46 49 51 41 46 57 71 63 61 73 63 56 53 58 55 52 54 54 47 48 48 40 30
62 69 68 65 66 62 62 56 52 43 51 55 52 50 51 59 81 77 63 80 74 70 59 61 57 61 55 54 44 43 46 45
74 64 64 71 68 69 67 57 51 46 52 57 50 48 56 56 62 69 93 89 73 74 78 66 64 64 61 55 53 51 53 46
66 66 64 52 70 64 61 57 55 46 54 58 46 44 53 58 60 60 57 77 84 67 84 80 71 69 64 63 60 56 60 50
37 51 52 59 66 62 59 57 52 40 49 48 39 42 51 46 49 54 45 52 63 87 74 93 64 71 61 62 60 54 61 56
32 28 6 14 35 55 54 53 43 40 46 42 41 41 35 28 33 38 41 53 51 57 93 77 49 59 56 57 61 64 57 49
65 23 16 8 19 46 45 45 43 40 42 41 43 44 36 29 32 35 36 38 41 52 64 62 69 54 58 60 67 64 51 45
39 38 46 32 10 24 20 29 43 49 45 46 48 44 28 30 32 35 33 34 41 37 74 81 69 74 66 63 64 55 45 42
53 47 48 47 43 37 25 19 14 22 41 52 47 30 31 35 31 38 33 33 40 45 59 71 67 81 68 63 60 48 41 41
58 48 40 40 38 32 28 26 22 21 17 9 20 31 40 35 32 36 36 28 31 37 47 93 60 73 78 71 61 42 40 37
48 51 43 35 27 21 24 28 27 24 17 20 17 20 17 23 26 37 37 30 27 32 47 73 81 93 75 55 55 43 40 33
47 43 44 36 26 24 19 22 22 21 24 24 22 19 14 12 23 31 35 34 30 36 45 74 92 83 44 53 33 36 38 31
45 41 42 45 39 38 31 27 25 26 28 20 24 28 32 8 20 23 28 25 23 29 69 74 59 52 63 53 39 38 32 35
Wind_Direction_850mb
330 299 335 141 248 232 238 260 250 237 250 230 222 223 224 225 224 223 221 219 214 214 215 215 215 213 214 216 209 193 182 188
303 306 290 295 278 227 240 253 256 251 241 232 228 229 231 231 232 229 224 223 220 218 218 220 222 220 216 211 193 183 185 205
290 287 283 287 258 239 247 230 242 244 241 228 231 235 238 239 238 236 230 229 225 222 219 219 220 224 218 213 196 197 202 194
282 279 277 274 277 241 244 248 248 238 248 246 243 244 244 244 242 244 240 235 230 228 220 216 206 207 196 189 197 206 210 222
262 264 279 263 273 251 239 243 247 233 253 262 244 247 247 246 248 245 244 240 234 231 227 225 215 205 202 219 221 217 218 229
251 248 253 265 264 261 242 247 250 257 265 267 262 245 247 243 242 243 245 241 237 233 232 233 228 222 229 229 228 221 224 240
240 243 251 252 257 258 263 250 247 254 256 265 264 252 244 243 245 245 242 237 240 235 236 241 245 237 234 223 221 225 221 230
266 251 248 247 250 253 252 254 243 246 251 248 254 250 250 241 242 245 243 234 236 236 241 234 238 231 234 233 239 246 233 232
272 258 254 249 242 241 242 247 250 246 247 243 253 263 264 256 247 242 240 241 232 231 242 236 234 234 235 234 232 216 230 226
276 256 254 255 244 244 240 240 245 248 249 243 250 269 279 270 265 260 252 236 242 232 233 237 231 233 230 230 223 231 226 226
269 258 242 243 240 234 230 232 232 240 238 239 250 274 285 283 270 271 265 249 245 237 234 243 232 231 230 233 228 232 234 227
291 253 248 246 256 233 226 223 228 238 232 236 254 279 287 284 279 274 285 276 266 245 245 249 231 228 229 228 234 233 231 233
351 50 259 232 243 225 219 220 229 239 228 248 261 267 292 297 294 286 277 280 281 257 226 215 222 234 233 234 233 237 240 240
322 34 44 101 209 208 216 225 228 235 242 255 258 265 282 304 315 302 291 279 271 248 215 223 213 223 240 236 237 239 236 231
1 72 74 77 108 211 225 236 231 231 235 244 251 256 286 306 318 317 306 284 273 261 224 219 206 219 232 228 234 235 228 225
15 42 64 74 75 73 64 53 26 270 258 250 258 263 282 290 302 315 319 297 276 261 231 218 235 219 221 217 233 221 211 218
11 33 41 49 68 65 59 57 46 35 36 260 275 281 268 277 297 307 321 300 279 261 247 224 218 225 221 215 203 191 205 207
341 3 11 26 33 45 56 55 57 46 23 0 0 348 304 283 292 304 318 303 271 252 235 202 199 213 205 191 180 174 198 199
308 327 344 348 355 352 355 11 24 34 25 11 351 349 335 278 290 307 318 302 260 248 224 205 202 191 196 182 174 190 209 200
288 294 291 308 324 326 326 322 335 357 5 352 339 309 336 302 291 312 308 301 258 240 201 193 191 191 160 164 189 194 189 182